Вернуться в каталог

HJS-6B

АктивенНаукаVLEO
NORAD 63429·PAYLOAD·🇨🇳 China

Запущен Apr 1, 2025 с Jiuquan Satellite Launch Center

Loading…

Ближайшие Пролёты (ближайшие 24 часа)

TLE

СвежийSource: Space-Track

Эпоха: Sep 14, 2026, 14:43 UTC

1 63429U 25067B   26257.61388448  .00014123  00000-0  67440-3 0  9993
2 63429  54.9972 356.8385 0006397 169.2998 190.8158 15.19322657 81539

Отслеживайте HJS-6B в реальном времени с AllMySat

Download on the App Store